Year,Month,Day,Hour,Minute,Value (Times are PST for temperature in C)
2007,07,10,00,00,17.40
2007,07,10,00,01,17.40
2007,07,10,00,02,17.40
2007,07,10,00,03,17.40
2007,07,10,00,04,17.30
2007,07,10,00,05,17.30
2007,07,10,00,06,17.20
2007,07,10,00,07,17.20
2007,07,10,00,08,17.20
2007,07,10,00,09,17.20
2007,07,10,00,10,17.20
2007,07,10,00,11,17.20
2007,07,10,00,12,17.20
2007,07,10,00,13,17.20
2007,07,10,00,14,17.10
2007,07,10,00,15,17.10
2007,07,10,00,16,17.10
2007,07,10,00,17,17.10
2007,07,10,00,18,17.00
2007,07,10,00,19,17.00
2007,07,10,00,20,17.00
2007,07,10,00,21,16.90
2007,07,10,00,22,16.90
2007,07,10,00,23,16.90
2007,07,10,00,24,16.90
2007,07,10,00,25,16.80
2007,07,10,00,26,16.80
2007,07,10,00,27,16.80
2007,07,10,00,28,16.80
2007,07,10,00,29,16.80
2007,07,10,00,30,16.80
2007,07,10,00,31,16.80
2007,07,10,00,32,16.70
2007,07,10,00,33,16.70
2007,07,10,00,34,16.70
2007,07,10,00,35,16.70
2007,07,10,00,36,16.70
2007,07,10,00,37,16.60
2007,07,10,00,38,16.60
2007,07,10,00,39,16.60
2007,07,10,00,40,16.60
2007,07,10,00,41,16.60
2007,07,10,00,42,16.50
2007,07,10,00,43,16.50
2007,07,10,00,44,16.50
2007,07,10,00,45,16.50
2007,07,10,00,46,16.40
2007,07,10,00,47,16.40
2007,07,10,00,48,16.40
2007,07,10,00,49,16.30
2007,07,10,00,50,16.30
2007,07,10,00,51,16.30
2007,07,10,00,52,16.20
2007,07,10,00,53,16.20
2007,07,10,00,54,16.10
2007,07,10,00,55,16.10
2007,07,10,00,56,16.10
2007,07,10,00,57,16.00
2007,07,10,00,58,16.00
2007,07,10,00,59,16.00
2007,07,10,01,00,16.00
2007,07,10,01,01,16.00
2007,07,10,01,02,15.90
2007,07,10,01,03,15.90
2007,07,10,01,04,15.90
2007,07,10,01,05,15.90
2007,07,10,01,06,15.90
2007,07,10,01,07,15.90
2007,07,10,01,08,15.80
2007,07,10,01,09,15.80
2007,07,10,01,10,15.80
2007,07,10,01,11,15.80
2007,07,10,01,12,15.80
2007,07,10,01,13,15.80
2007,07,10,01,14,15.80
2007,07,10,01,15,15.80
2007,07,10,01,16,15.80
2007,07,10,01,17,15.80
2007,07,10,01,18,15.80
2007,07,10,01,19,15.80
2007,07,10,01,20,15.80
2007,07,10,01,21,15.70
2007,07,10,01,22,15.70
2007,07,10,01,23,15.70
2007,07,10,01,24,15.70
2007,07,10,01,25,15.70
2007,07,10,01,26,15.70
2007,07,10,01,27,15.70
2007,07,10,01,28,15.70
2007,07,10,01,29,15.70
2007,07,10,01,30,15.70
2007,07,10,01,31,15.70
2007,07,10,01,32,15.70
2007,07,10,01,33,15.70
2007,07,10,01,34,15.60
2007,07,10,01,35,15.60
2007,07,10,01,36,15.60
2007,07,10,01,37,15.60
2007,07,10,01,38,15.60
2007,07,10,01,39,15.60
2007,07,10,01,40,15.60
2007,07,10,01,41,15.60
2007,07,10,01,42,15.60
2007,07,10,01,43,15.60
2007,07,10,01,44,15.50
2007,07,10,01,45,15.50
2007,07,10,01,46,15.50
2007,07,10,01,47,15.50
2007,07,10,01,48,15.50
2007,07,10,01,49,15.50
2007,07,10,01,50,15.50
2007,07,10,01,51,15.40
2007,07,10,01,52,15.40
2007,07,10,01,53,15.40
2007,07,10,01,54,15.40
2007,07,10,01,55,15.40
2007,07,10,01,56,15.40
2007,07,10,01,57,15.40
2007,07,10,01,58,15.40
2007,07,10,01,59,15.40
2007,07,10,02,00,15.40
2007,07,10,02,01,15.40
2007,07,10,02,02,15.40
2007,07,10,02,03,15.40
2007,07,10,02,04,15.30
2007,07,10,02,05,15.30
2007,07,10,02,06,15.30
2007,07,10,02,07,15.30
2007,07,10,02,08,15.30
2007,07,10,02,09,15.30
2007,07,10,02,10,15.30
2007,07,10,02,11,15.30
2007,07,10,02,12,15.30
2007,07,10,02,13,15.20
2007,07,10,02,14,15.20
2007,07,10,02,15,15.20
2007,07,10,02,16,15.20
2007,07,10,02,17,15.20
2007,07,10,02,18,15.20
2007,07,10,02,19,15.20
2007,07,10,02,20,15.20
2007,07,10,02,21,15.10
2007,07,10,02,22,15.10
2007,07,10,02,23,15.10
2007,07,10,02,24,15.10
2007,07,10,02,25,15.10
2007,07,10,02,26,15.10
2007,07,10,02,27,15.00
2007,07,10,02,28,15.00
2007,07,10,02,29,15.00
2007,07,10,02,30,15.00
2007,07,10,02,31,15.00
2007,07,10,02,32,15.00
2007,07,10,02,33,15.00
2007,07,10,02,34,15.00
2007,07,10,02,35,15.00
2007,07,10,02,36,15.00
2007,07,10,02,37,15.00
2007,07,10,02,38,15.00
2007,07,10,02,39,15.00
2007,07,10,02,40,15.00
2007,07,10,02,41,15.00
2007,07,10,02,42,15.00
2007,07,10,02,43,15.00
2007,07,10,02,44,15.00
2007,07,10,02,45,15.00
2007,07,10,02,46,15.00
2007,07,10,02,47,15.00
2007,07,10,02,48,15.00
2007,07,10,02,49,15.00
2007,07,10,02,50,15.00
2007,07,10,02,51,15.00
2007,07,10,02,52,14.90
2007,07,10,02,53,14.90
2007,07,10,02,54,14.90
2007,07,10,02,55,14.90
2007,07,10,02,56,14.80
2007,07,10,02,57,14.80
2007,07,10,02,58,14.80
2007,07,10,02,59,14.80
2007,07,10,03,00,14.80
2007,07,10,03,01,14.80
2007,07,10,03,02,14.80
2007,07,10,03,03,14.80
2007,07,10,03,04,14.80
2007,07,10,03,05,14.80
2007,07,10,03,06,14.80
2007,07,10,03,07,14.70
2007,07,10,03,08,14.80
2007,07,10,03,09,14.80
2007,07,10,03,10,14.80
2007,07,10,03,11,14.80
2007,07,10,03,12,14.80
2007,07,10,03,13,14.80
2007,07,10,03,14,14.80
2007,07,10,03,15,14.80
2007,07,10,03,16,14.80
2007,07,10,03,17,14.80
2007,07,10,03,18,14.80
2007,07,10,03,19,14.80
2007,07,10,03,20,14.70
2007,07,10,03,21,14.70
2007,07,10,03,22,14.70
2007,07,10,03,23,14.70
2007,07,10,03,24,14.70
2007,07,10,03,25,14.70
2007,07,10,03,26,14.70
2007,07,10,03,27,14.70
2007,07,10,03,28,14.70
2007,07,10,03,29,14.70
2007,07,10,03,30,14.70
2007,07,10,03,31,14.70
2007,07,10,03,32,14.70
2007,07,10,03,33,14.70
2007,07,10,03,34,14.70
2007,07,10,03,35,14.60
2007,07,10,03,36,14.60
2007,07,10,03,37,14.60
2007,07,10,03,38,14.60
2007,07,10,03,39,14.60
2007,07,10,03,40,14.60
2007,07,10,03,41,14.60
2007,07,10,03,42,14.50
2007,07,10,03,43,14.50
2007,07,10,03,44,14.50
2007,07,10,03,45,14.50
2007,07,10,03,46,14.50
2007,07,10,03,47,14.40
2007,07,10,03,48,14.40
2007,07,10,03,49,14.40
2007,07,10,03,50,14.40
2007,07,10,03,51,14.40
2007,07,10,03,52,14.40
2007,07,10,03,53,14.40
2007,07,10,03,54,14.40
2007,07,10,03,55,14.40
2007,07,10,03,56,14.40
2007,07,10,03,57,14.40
2007,07,10,03,58,14.40
2007,07,10,03,59,14.40
2007,07,10,04,00,14.40
2007,07,10,04,01,14.40
2007,07,10,04,02,14.30
2007,07,10,04,03,14.30
2007,07,10,04,04,14.30
2007,07,10,04,05,14.30
2007,07,10,04,06,14.20
2007,07,10,04,07,14.20
2007,07,10,04,08,14.20
2007,07,10,04,09,14.20
2007,07,10,04,10,14.20
2007,07,10,04,11,14.10
2007,07,10,04,12,14.10
2007,07,10,04,13,14.10
2007,07,10,04,14,14.10
2007,07,10,04,15,14.10
2007,07,10,04,16,14.10
2007,07,10,04,17,14.10
2007,07,10,04,18,14.10
2007,07,10,04,19,14.10
2007,07,10,04,20,14.10
2007,07,10,04,21,14.10
2007,07,10,04,22,14.10
2007,07,10,04,23,14.10
2007,07,10,04,24,14.10
2007,07,10,04,25,14.10
2007,07,10,04,26,14.10
2007,07,10,04,27,14.10
2007,07,10,04,28,14.10
2007,07,10,04,29,14.10
2007,07,10,04,30,14.10
2007,07,10,04,31,14.10
2007,07,10,04,32,14.10
2007,07,10,04,33,14.10
2007,07,10,04,34,14.10
2007,07,10,04,35,14.00
2007,07,10,04,36,14.00
2007,07,10,04,37,14.00
2007,07,10,04,38,14.10
2007,07,10,04,39,14.10
2007,07,10,04,40,14.10
2007,07,10,04,41,14.10
2007,07,10,04,42,14.10
2007,07,10,04,43,14.10
2007,07,10,04,44,14.10
2007,07,10,04,45,14.10
2007,07,10,04,46,14.10
2007,07,10,04,47,14.20
2007,07,10,04,48,14.20
2007,07,10,04,49,14.10
2007,07,10,04,50,14.10
2007,07,10,04,51,14.10
2007,07,10,04,52,14.10
2007,07,10,04,53,14.10
2007,07,10,04,54,14.10
2007,07,10,04,55,14.10
2007,07,10,04,56,14.00
2007,07,10,04,57,14.00
2007,07,10,04,58,14.00
2007,07,10,04,59,14.00
2007,07,10,05,00,14.00
2007,07,10,05,01,14.00
2007,07,10,05,02,14.00
2007,07,10,05,03,14.00
2007,07,10,05,04,14.00
2007,07,10,05,05,14.00
2007,07,10,05,06,14.00
2007,07,10,05,07,14.00
2007,07,10,05,08,14.00
2007,07,10,05,09,14.00
2007,07,10,05,10,14.00
2007,07,10,05,11,13.90
2007,07,10,05,12,13.90
2007,07,10,05,13,13.90
2007,07,10,05,14,13.90
2007,07,10,05,15,13.80
2007,07,10,05,16,13.80
2007,07,10,05,17,13.80
2007,07,10,05,18,13.80
2007,07,10,05,19,13.80
2007,07,10,05,20,13.70
2007,07,10,05,21,13.70
2007,07,10,05,22,13.70
2007,07,10,05,23,13.70
2007,07,10,05,24,13.70
2007,07,10,05,25,13.70
2007,07,10,05,26,13.70
2007,07,10,05,27,13.70
2007,07,10,05,28,13.70
2007,07,10,05,29,13.60
2007,07,10,05,30,13.60
2007,07,10,05,31,13.60
2007,07,10,05,32,13.60
2007,07,10,05,33,13.60
2007,07,10,05,34,13.60
2007,07,10,05,35,13.60
2007,07,10,05,36,13.60
2007,07,10,05,37,13.60
2007,07,10,05,38,13.50
2007,07,10,05,39,13.50
2007,07,10,05,40,13.50
2007,07,10,05,41,13.50
2007,07,10,05,42,13.50
2007,07,10,05,43,13.50
2007,07,10,05,44,13.50
2007,07,10,05,45,13.60
2007,07,10,05,46,13.60
2007,07,10,05,47,13.60
2007,07,10,05,48,13.60
2007,07,10,05,49,13.60
2007,07,10,05,50,13.60
2007,07,10,05,51,13.60
2007,07,10,05,52,13.60
2007,07,10,05,53,13.60
2007,07,10,05,54,13.70
2007,07,10,05,55,13.70
2007,07,10,05,56,13.70
2007,07,10,05,57,13.70
2007,07,10,05,58,13.70
2007,07,10,05,59,13.70
2007,07,10,06,00,13.70
2007,07,10,06,01,13.70
2007,07,10,06,02,13.80
2007,07,10,06,03,13.80
2007,07,10,06,04,13.80
2007,07,10,06,05,13.80
2007,07,10,06,06,13.80
2007,07,10,06,07,13.80
2007,07,10,06,08,13.80
2007,07,10,06,09,13.80
2007,07,10,06,10,13.80
2007,07,10,06,11,13.90
2007,07,10,06,12,13.90
2007,07,10,06,13,13.90
2007,07,10,06,14,13.90
2007,07,10,06,15,13.90
2007,07,10,06,16,13.90
2007,07,10,06,17,14.00
2007,07,10,06,18,14.00
2007,07,10,06,19,14.00
2007,07,10,06,20,14.10
2007,07,10,06,21,14.10
2007,07,10,06,22,14.20
2007,07,10,06,23,14.20
2007,07,10,06,24,14.30
2007,07,10,06,25,14.30
2007,07,10,06,26,14.40
2007,07,10,06,27,14.40
2007,07,10,06,28,14.50
2007,07,10,06,29,14.60
2007,07,10,06,30,14.70
2007,07,10,06,31,14.70
2007,07,10,06,32,14.80
2007,07,10,06,33,14.90
2007,07,10,06,34,15.00
2007,07,10,06,35,15.00
2007,07,10,06,36,15.00
2007,07,10,06,37,15.00
2007,07,10,06,38,15.00
2007,07,10,06,39,15.00
2007,07,10,06,40,15.00
2007,07,10,06,41,15.00
2007,07,10,06,42,15.00
2007,07,10,06,43,15.00
2007,07,10,06,44,15.20
2007,07,10,06,45,15.30
2007,07,10,06,46,15.40
2007,07,10,06,47,15.50
2007,07,10,06,48,15.60
2007,07,10,06,49,15.60
2007,07,10,06,50,15.70
2007,07,10,06,51,15.80
2007,07,10,06,52,15.80
2007,07,10,06,53,15.90
2007,07,10,06,54,16.00
2007,07,10,06,55,16.00
2007,07,10,06,56,16.10
2007,07,10,06,57,16.10
2007,07,10,06,58,16.20
2007,07,10,06,59,16.20
2007,07,10,07,00,16.20
2007,07,10,07,01,16.30
2007,07,10,07,02,16.30
2007,07,10,07,03,16.30
2007,07,10,07,04,16.30
2007,07,10,07,05,16.30
2007,07,10,07,06,16.40
2007,07,10,07,07,16.50
2007,07,10,07,08,16.60
2007,07,10,07,09,16.70
2007,07,10,07,10,16.80
2007,07,10,07,11,17.00
2007,07,10,07,12,17.10
2007,07,10,07,13,17.20
2007,07,10,07,14,17.30
2007,07,10,07,15,17.30
2007,07,10,07,16,17.40
2007,07,10,07,17,17.40
2007,07,10,07,18,17.50
2007,07,10,07,19,17.60
2007,07,10,07,20,17.70
2007,07,10,07,21,17.80
2007,07,10,07,22,17.90
2007,07,10,07,23,18.00
2007,07,10,07,24,18.00
2007,07,10,07,25,18.10
2007,07,10,07,26,18.30
2007,07,10,07,27,18.40
2007,07,10,07,28,18.50
2007,07,10,07,29,18.60
2007,07,10,07,30,18.70
2007,07,10,07,31,18.70
2007,07,10,07,32,18.70
2007,07,10,07,33,18.70
2007,07,10,07,34,18.80
2007,07,10,07,35,18.80
2007,07,10,07,36,18.80
2007,07,10,07,37,18.90
2007,07,10,07,38,19.00
2007,07,10,07,39,19.00
2007,07,10,07,40,19.10
2007,07,10,07,41,19.10
2007,07,10,07,42,19.20
2007,07,10,07,43,19.30
2007,07,10,07,44,19.30
2007,07,10,07,45,19.40
2007,07,10,07,46,19.50
2007,07,10,07,47,19.60
2007,07,10,07,48,19.70
2007,07,10,07,49,19.70
2007,07,10,07,50,19.80
2007,07,10,07,51,19.80
2007,07,10,07,52,19.80
2007,07,10,07,53,19.80
2007,07,10,07,54,19.80
2007,07,10,07,55,19.80
2007,07,10,07,56,19.90
2007,07,10,07,57,19.90
2007,07,10,07,58,20.00
2007,07,10,07,59,20.00
2007,07,10,08,00,20.10
2007,07,10,08,01,20.10
2007,07,10,08,02,20.20
2007,07,10,08,03,20.20
2007,07,10,08,04,20.20
2007,07,10,08,05,20.30
2007,07,10,08,06,20.30
2007,07,10,08,07,20.40
2007,07,10,08,08,20.40
2007,07,10,08,09,20.50
2007,07,10,08,10,20.60
2007,07,10,08,11,20.70
2007,07,10,08,12,20.80
2007,07,10,08,13,20.80
2007,07,10,08,14,20.90
2007,07,10,08,15,20.90
2007,07,10,08,16,21.00
2007,07,10,08,17,21.00
2007,07,10,08,18,21.10
2007,07,10,08,19,21.10
2007,07,10,08,20,21.30
2007,07,10,08,21,21.40
2007,07,10,08,22,21.50
2007,07,10,08,23,21.60
2007,07,10,08,24,21.70
2007,07,10,08,25,21.80
2007,07,10,08,26,21.80
2007,07,10,08,27,21.80
2007,07,10,08,28,21.80
2007,07,10,08,29,21.70
2007,07,10,08,30,21.70
2007,07,10,08,31,21.70
2007,07,10,08,32,21.60
2007,07,10,08,33,21.50
2007,07,10,08,34,21.40
2007,07,10,08,35,21.40
2007,07,10,08,36,21.40
2007,07,10,08,37,21.50
2007,07,10,08,38,21.60
2007,07,10,08,39,21.70
2007,07,10,08,40,21.80
2007,07,10,08,41,21.90
2007,07,10,08,42,22.10
2007,07,10,08,43,22.20
2007,07,10,08,44,22.30
2007,07,10,08,45,22.40
2007,07,10,08,46,22.50
2007,07,10,08,47,22.60
2007,07,10,08,48,22.70
2007,07,10,08,49,22.80
2007,07,10,08,50,22.90
2007,07,10,08,51,23.00
2007,07,10,08,52,23.10
2007,07,10,08,53,23.20
2007,07,10,08,54,23.30
2007,07,10,08,55,23.30
2007,07,10,08,56,23.40
2007,07,10,08,57,23.50
2007,07,10,08,58,23.50
2007,07,10,08,59,23.60
2007,07,10,09,00,23.70
2007,07,10,09,01,23.70
2007,07,10,09,02,23.70
2007,07,10,09,03,23.80
2007,07,10,09,04,23.90
2007,07,10,09,05,24.00
2007,07,10,09,06,24.10
2007,07,10,09,07,24.20
2007,07,10,09,08,24.30
2007,07,10,09,09,24.40
2007,07,10,09,10,24.50
2007,07,10,09,11,24.70
2007,07,10,09,12,24.80
2007,07,10,09,13,25.00
2007,07,10,09,14,25.10
2007,07,10,09,15,25.20
2007,07,10,09,16,25.30
2007,07,10,09,17,25.40
2007,07,10,09,18,25.50
2007,07,10,09,19,25.60
2007,07,10,09,20,25.70
2007,07,10,09,21,25.80
2007,07,10,09,22,25.90
2007,07,10,09,23,25.90
2007,07,10,09,24,26.00
2007,07,10,09,25,26.10
2007,07,10,09,26,26.10
2007,07,10,09,27,26.20
2007,07,10,09,28,26.30
2007,07,10,09,29,26.30
2007,07,10,09,30,26.40
2007,07,10,09,31,26.50
2007,07,10,09,32,26.50
2007,07,10,09,33,26.60
2007,07,10,09,34,26.60
2007,07,10,09,35,26.70
2007,07,10,09,36,26.80
2007,07,10,09,37,26.80
2007,07,10,09,38,26.90
2007,07,10,09,39,26.90
2007,07,10,09,40,26.90
2007,07,10,09,41,27.00
2007,07,10,09,42,27.10
2007,07,10,09,43,27.10
2007,07,10,09,44,27.10
2007,07,10,09,45,27.20
2007,07,10,09,46,27.20
2007,07,10,09,47,27.20
2007,07,10,09,48,26.90
2007,07,10,09,49,26.60
2007,07,10,09,50,26.10
2007,07,10,09,51,25.60
2007,07,10,09,52,25.00
2007,07,10,09,53,24.40
2007,07,10,09,54,23.80
2007,07,10,09,55,23.30
2007,07,10,09,56,23.00
2007,07,10,09,57,22.70
2007,07,10,09,58,22.50
2007,07,10,09,59,22.30
2007,07,10,10,00,22.20
2007,07,10,10,01,22.10
2007,07,10,10,02,22.00
2007,07,10,10,03,21.90
2007,07,10,10,04,21.90
2007,07,10,10,05,21.80
2007,07,10,10,06,21.70
2007,07,10,10,07,21.70
2007,07,10,10,08,21.70
2007,07,10,10,09,21.60
2007,07,10,10,10,21.70
2007,07,10,10,11,21.80
2007,07,10,10,12,21.80
2007,07,10,10,13,22.00
2007,07,10,10,14,22.20
2007,07,10,10,15,22.30
2007,07,10,10,16,22.50
2007,07,10,10,17,22.70
2007,07,10,10,18,22.80
2007,07,10,10,19,23.00
2007,07,10,10,20,23.10
2007,07,10,10,21,23.30
2007,07,10,10,22,23.40
2007,07,10,10,23,23.40
2007,07,10,10,24,23.60
2007,07,10,10,25,23.70
2007,07,10,10,26,23.60
2007,07,10,10,27,23.50
2007,07,10,10,28,23.40
2007,07,10,10,29,23.40
2007,07,10,10,30,23.40
2007,07,10,10,31,23.40
2007,07,10,10,32,23.40
2007,07,10,10,33,23.40
2007,07,10,10,34,23.40
2007,07,10,10,35,23.50
2007,07,10,10,36,23.60
2007,07,10,10,37,23.60
2007,07,10,10,38,23.60
2007,07,10,10,39,23.50
2007,07,10,10,40,23.40
2007,07,10,10,41,23.40
2007,07,10,10,42,23.40
2007,07,10,10,43,23.40
2007,07,10,10,44,23.40
2007,07,10,10,45,23.60
2007,07,10,10,46,23.70
2007,07,10,10,47,23.80
2007,07,10,10,48,23.90
2007,07,10,10,49,24.00
2007,07,10,10,50,24.00
2007,07,10,10,51,24.10
2007,07,10,10,52,24.20
2007,07,10,10,53,24.20
2007,07,10,10,54,24.10
2007,07,10,10,55,24.00
2007,07,10,10,56,24.00
2007,07,10,10,57,24.00
2007,07,10,10,58,23.90
2007,07,10,10,59,23.80
2007,07,10,11,00,23.80
2007,07,10,11,01,23.80
2007,07,10,11,02,23.70
2007,07,10,11,03,23.70
2007,07,10,11,04,23.70
2007,07,10,11,05,23.70
2007,07,10,11,06,23.90
2007,07,10,11,07,24.00
2007,07,10,11,08,24.10
2007,07,10,11,09,24.20
2007,07,10,11,10,24.20
2007,07,10,11,11,24.30
2007,07,10,11,12,24.30
2007,07,10,11,13,24.30
2007,07,10,11,14,24.30
2007,07,10,11,15,24.30
2007,07,10,11,16,24.30
2007,07,10,11,17,24.40
2007,07,10,11,18,24.50
2007,07,10,11,19,24.60
2007,07,10,11,20,24.70
2007,07,10,11,21,24.80
2007,07,10,11,22,25.00
2007,07,10,11,23,24.90
2007,07,10,11,24,24.80
2007,07,10,11,25,24.80
2007,07,10,11,26,24.80
2007,07,10,11,27,24.70
2007,07,10,11,28,24.80
2007,07,10,11,29,24.80
2007,07,10,11,30,24.80
2007,07,10,11,31,24.80
2007,07,10,11,32,24.70
2007,07,10,11,33,24.70
2007,07,10,11,34,24.60
2007,07,10,11,35,24.70
2007,07,10,11,36,24.80
2007,07,10,11,37,24.80
2007,07,10,11,38,24.80
2007,07,10,11,39,24.80
2007,07,10,11,40,24.90
2007,07,10,11,41,25.00
2007,07,10,11,42,25.10
2007,07,10,11,43,25.20
2007,07,10,11,44,25.20
2007,07,10,11,45,25.10
2007,07,10,11,46,25.10
2007,07,10,11,47,25.20
2007,07,10,11,48,25.30
2007,07,10,11,49,25.10
2007,07,10,11,50,25.00
2007,07,10,11,51,24.80
2007,07,10,11,52,24.80
2007,07,10,11,53,24.80
2007,07,10,11,54,24.90
2007,07,10,11,55,25.00
2007,07,10,11,56,25.10
2007,07,10,11,57,25.20
2007,07,10,11,58,25.30
2007,07,10,11,59,25.40
2007,07,10,12,00,25.50
2007,07,10,12,01,25.60
2007,07,10,12,02,25.70
2007,07,10,12,03,25.80
2007,07,10,12,04,25.80
2007,07,10,12,05,25.70
2007,07,10,12,06,25.70
2007,07,10,12,07,25.70
2007,07,10,12,08,25.80
2007,07,10,12,09,25.70
2007,07,10,12,10,25.80
2007,07,10,12,11,25.80
2007,07,10,12,12,25.90
2007,07,10,12,13,26.00
2007,07,10,12,14,26.20
2007,07,10,12,15,26.30
2007,07,10,12,16,26.40
2007,07,10,12,17,26.40
2007,07,10,12,18,26.40
2007,07,10,12,19,26.40
2007,07,10,12,20,26.50
2007,07,10,12,21,26.70
2007,07,10,12,22,26.70
2007,07,10,12,23,26.80
2007,07,10,12,24,26.80
2007,07,10,12,25,26.70
2007,07,10,12,26,26.60
2007,07,10,12,27,26.50
2007,07,10,12,28,26.40
2007,07,10,12,29,26.40
2007,07,10,12,30,26.40
2007,07,10,12,31,26.40
2007,07,10,12,32,26.30
2007,07,10,12,33,26.30
2007,07,10,12,34,26.30
2007,07,10,12,35,26.30
2007,07,10,12,36,26.30
2007,07,10,12,37,26.50
2007,07,10,12,38,26.40
2007,07,10,12,39,26.20
2007,07,10,12,40,26.10
2007,07,10,12,41,26.20
2007,07,10,12,42,26.20
2007,07,10,12,43,26.20
2007,07,10,12,44,26.20
2007,07,10,12,45,26.10
2007,07,10,12,46,26.20
2007,07,10,12,47,26.30
2007,07,10,12,48,26.40
2007,07,10,12,49,26.30
2007,07,10,12,50,26.20
2007,07,10,12,51,26.20
2007,07,10,12,52,26.10
2007,07,10,12,53,26.00
2007,07,10,12,54,25.90
2007,07,10,12,55,25.90
2007,07,10,12,56,25.90
2007,07,10,12,57,25.80
2007,07,10,12,58,25.80
2007,07,10,12,59,25.70
2007,07,10,13,00,25.70
2007,07,10,13,01,25.70
2007,07,10,13,02,25.60
2007,07,10,13,03,25.50
2007,07,10,13,04,25.40
2007,07,10,13,05,25.40
2007,07,10,13,06,25.40
2007,07,10,13,07,25.40
2007,07,10,13,08,25.50
2007,07,10,13,09,25.70
2007,07,10,13,10,25.80
2007,07,10,13,11,25.90
2007,07,10,13,12,26.00
2007,07,10,13,13,25.90
2007,07,10,13,14,25.90
2007,07,10,13,15,25.90
2007,07,10,13,16,25.90
2007,07,10,13,17,25.90
2007,07,10,13,18,25.90
2007,07,10,13,19,25.90
2007,07,10,13,20,25.90
2007,07,10,13,21,26.00
2007,07,10,13,22,26.20
2007,07,10,13,23,26.20
2007,07,10,13,24,26.20
2007,07,10,13,25,26.30
2007,07,10,13,26,26.40
2007,07,10,13,27,26.40
2007,07,10,13,28,26.40
2007,07,10,13,29,26.20
2007,07,10,13,30,26.20
2007,07,10,13,31,26.20
2007,07,10,13,32,26.10
2007,07,10,13,33,26.10
2007,07,10,13,34,25.90
2007,07,10,13,35,26.00
2007,07,10,13,36,26.00
2007,07,10,13,37,26.10
2007,07,10,13,38,26.20
2007,07,10,13,39,26.30
2007,07,10,13,40,26.40
2007,07,10,13,41,26.60
2007,07,10,13,42,26.70
2007,07,10,13,43,26.80
2007,07,10,13,44,26.80
2007,07,10,13,45,26.90
2007,07,10,13,46,27.00
2007,07,10,13,47,27.00
2007,07,10,13,48,27.00
2007,07,10,13,49,27.10
2007,07,10,13,50,27.10
2007,07,10,13,51,27.30
2007,07,10,13,52,27.40
2007,07,10,13,53,27.40
2007,07,10,13,54,27.50
2007,07,10,13,55,27.50
2007,07,10,13,56,27.40
2007,07,10,13,57,27.40
2007,07,10,13,58,27.20
2007,07,10,13,59,27.10
2007,07,10,14,00,27.00
2007,07,10,14,01,27.10
2007,07,10,14,02,27.10
2007,07,10,14,03,27.10
2007,07,10,14,04,27.10
2007,07,10,14,05,27.10
2007,07,10,14,06,27.10
2007,07,10,14,07,27.10
2007,07,10,14,08,27.20
2007,07,10,14,09,27.20
2007,07,10,14,10,27.20
2007,07,10,14,11,27.30
2007,07,10,14,12,27.30
2007,07,10,14,13,27.30
2007,07,10,14,14,27.20
2007,07,10,14,15,27.10
2007,07,10,14,16,27.00
2007,07,10,14,17,26.80
2007,07,10,14,18,26.60
2007,07,10,14,19,26.60
2007,07,10,14,20,26.60
2007,07,10,14,21,26.50
2007,07,10,14,22,26.50
2007,07,10,14,23,26.50
2007,07,10,14,24,26.50
2007,07,10,14,25,26.60
2007,07,10,14,26,26.80
2007,07,10,14,27,26.90
2007,07,10,14,28,27.00
2007,07,10,14,29,27.00
2007,07,10,14,30,27.00
2007,07,10,14,31,27.00
2007,07,10,14,32,27.00
2007,07,10,14,33,26.90
2007,07,10,14,34,26.90
2007,07,10,14,35,26.80
2007,07,10,14,36,26.70
2007,07,10,14,37,26.60
2007,07,10,14,38,26.60
2007,07,10,14,39,26.60
2007,07,10,14,40,26.60
2007,07,10,14,41,26.60
2007,07,10,14,42,26.60
2007,07,10,14,43,26.70
2007,07,10,14,44,26.90
2007,07,10,14,45,27.10
2007,07,10,14,46,27.10
2007,07,10,14,47,27.10
2007,07,10,14,48,27.10
2007,07,10,14,49,27.10
2007,07,10,14,50,27.00
2007,07,10,14,51,27.00
2007,07,10,14,52,26.90
2007,07,10,14,53,26.90
2007,07,10,14,54,27.00
2007,07,10,14,55,27.10
2007,07,10,14,56,27.10
2007,07,10,14,57,27.10
2007,07,10,14,58,27.10
2007,07,10,14,59,27.10
2007,07,10,15,00,27.10
2007,07,10,15,01,27.20
2007,07,10,15,02,27.20
2007,07,10,15,03,27.20
2007,07,10,15,04,27.20
2007,07,10,15,05,27.30
2007,07,10,15,06,27.40
2007,07,10,15,07,27.50
2007,07,10,15,08,27.50
2007,07,10,15,09,27.60
2007,07,10,15,10,27.60
2007,07,10,15,11,27.70
2007,07,10,15,12,27.80
2007,07,10,15,13,27.80
2007,07,10,15,14,27.80
2007,07,10,15,15,27.80
2007,07,10,15,16,27.90
2007,07,10,15,17,27.90
2007,07,10,15,18,27.90
2007,07,10,15,19,28.00
2007,07,10,15,20,28.20
2007,07,10,15,21,28.30
2007,07,10,15,22,28.40
2007,07,10,15,23,28.40
2007,07,10,15,24,28.40
2007,07,10,15,25,28.30
2007,07,10,15,26,28.10
2007,07,10,15,27,28.00
2007,07,10,15,28,27.90
2007,07,10,15,29,28.00
2007,07,10,15,30,28.00
2007,07,10,15,31,28.00
2007,07,10,15,32,28.00
2007,07,10,15,33,28.00
2007,07,10,15,34,28.00
2007,07,10,15,35,28.00
2007,07,10,15,36,28.10
2007,07,10,15,37,28.00
2007,07,10,15,38,28.00
2007,07,10,15,39,28.10
2007,07,10,15,40,28.10
2007,07,10,15,41,28.10
2007,07,10,15,42,28.20
2007,07,10,15,43,28.50
2007,07,10,15,44,28.50
2007,07,10,15,45,28.50
2007,07,10,15,46,28.50
2007,07,10,15,47,28.50
2007,07,10,15,48,28.50
2007,07,10,15,49,28.50
2007,07,10,15,50,28.50
2007,07,10,15,51,28.40
2007,07,10,15,52,28.40
2007,07,10,15,53,28.50
2007,07,10,15,54,28.50
2007,07,10,15,55,28.50
2007,07,10,15,56,28.50
2007,07,10,15,57,28.40
2007,07,10,15,58,28.30
2007,07,10,15,59,28.30
2007,07,10,16,00,28.40
2007,07,10,16,01,28.30
2007,07,10,16,02,28.30
2007,07,10,16,03,28.20
2007,07,10,16,04,28.20
2007,07,10,16,05,28.20
2007,07,10,16,06,28.20
2007,07,10,16,07,28.20
2007,07,10,16,08,28.30
2007,07,10,16,09,28.40
2007,07,10,16,10,28.30
2007,07,10,16,11,28.30
2007,07,10,16,12,28.30
2007,07,10,16,13,28.30
2007,07,10,16,14,28.50
2007,07,10,16,15,28.60
2007,07,10,16,16,28.60
2007,07,10,16,17,28.60
2007,07,10,16,18,28.80
2007,07,10,16,19,28.90
2007,07,10,16,20,29.00
2007,07,10,16,21,29.00
2007,07,10,16,22,29.10
2007,07,10,16,23,29.40
2007,07,10,16,24,29.40
2007,07,10,16,25,29.40
2007,07,10,16,26,29.40
2007,07,10,16,27,29.20
2007,07,10,16,28,29.10
2007,07,10,16,29,29.00
2007,07,10,16,30,29.00
2007,07,10,16,31,29.00
2007,07,10,16,32,28.90
2007,07,10,16,33,28.90
2007,07,10,16,34,29.00
2007,07,10,16,35,29.00
2007,07,10,16,36,29.00
2007,07,10,16,37,29.00
2007,07,10,16,38,28.90
2007,07,10,16,39,28.80
2007,07,10,16,40,28.80
2007,07,10,16,41,28.70
2007,07,10,16,42,28.70
2007,07,10,16,43,28.60
2007,07,10,16,44,28.70
2007,07,10,16,45,28.70
2007,07,10,16,46,28.70
2007,07,10,16,47,28.70
2007,07,10,16,48,28.80
2007,07,10,16,49,28.90
2007,07,10,16,50,29.00
2007,07,10,16,51,29.00
2007,07,10,16,52,28.90
2007,07,10,16,53,28.80
2007,07,10,16,54,28.80
2007,07,10,16,55,28.80
2007,07,10,16,56,28.70
2007,07,10,16,57,28.70
2007,07,10,16,58,28.60
2007,07,10,16,59,28.60
2007,07,10,17,00,28.60
2007,07,10,17,01,28.70
2007,07,10,17,02,28.80
2007,07,10,17,03,28.90
2007,07,10,17,04,28.80
2007,07,10,17,05,28.80
2007,07,10,17,06,28.70
2007,07,10,17,07,28.70
2007,07,10,17,08,28.80
2007,07,10,17,09,28.80
2007,07,10,17,10,28.90
2007,07,10,17,11,28.80
2007,07,10,17,12,28.80
2007,07,10,17,13,28.90
2007,07,10,17,14,29.00
2007,07,10,17,15,29.00
2007,07,10,17,16,29.10
2007,07,10,17,17,29.20
2007,07,10,17,18,29.20
2007,07,10,17,19,29.30